Location: Terra Rouge Observatory
(46.0000°N, 62.7500°W)
Time: 20:53:26
(UTC-03:00)

Daily predictions for brighter satellites

Satellite Brightness Start Highest point End
(mag) Time Altitude Azimuth Time Altitude Azimuth Time Altitude Azimuth
BREEZE-M DEB (TANK) 4.3 19:48:57 10° S 19:51:16 20° ESE 19:55:29 10° ENE
Cosmos 1934 Rocket 4.3 19:46:09 10° SSE 19:51:53 43° E 19:57:33 10° NNE
Cosmos 2344 3.9 19:44:43 10° S 19:51:54 46° ESE 19:59:52 10° NE
Lacrosse 5 rocket 3.1 19:52:13 10° NW 19:55:17 20° NNE 19:58:14 10° ENE
Cosmos 1766 3.9 19:55:32 10° SSE 19:59:01 32° E 20:02:32 10° NNE
Okean 3 Rocket 4.4 19:55:51 10° NNE 19:59:43 29° ENE 20:03:35 10° SE
Cosmos 1844 3.8 19:57:41 10° S 20:03:20 60° ESE 20:09:03 10° NNE
RESURS DK-1 2.4 19:59:54 10° NNW 20:04:00 60° ENE 20:08:05 10° SE
Cosmos 405 3.1 20:01:32 10° SSW 20:05:03 82° W 20:08:36 10° N
Tiangong 1 2.4 20:03:09 10° WSW 20:05:46 29° SSW 20:08:21 10° SE
USA 215 4.2 20:07:53 10° ENE 20:13:07 25° SE 20:18:18 10° S
Abrixas 2.4 20:10:23 10° WNW 20:13:14 71° NNE 20:15:38 13° E
Cosmos 1821 Rocket 4.0 20:07:03 10° S 20:13:25 78° E 20:19:47 10° N
USA 186 2.1 20:18:31 15° ESE 20:19:52 24° ENE 20:21:47 10° NNE
Cosmos 1812 Rocket 3.5 20:17:43 10° S 20:22:08 83° E 20:26:33 10° N
Spot 2 Rocket 3.5 20:18:25 10° SSE 20:23:30 79° ENE 20:28:39 10° NNW
GP-B 4.0 20:22:00 10° SE 20:25:46 28° ENE 20:29:33 10° NNE
Cosmos 1674 4.0 20:23:13 10° NNE 20:26:12 22° ENE 20:27:58 16° ESE
Resurs 01 Rocket 1.6 20:23:56 10° SSE 20:28:21 88° WSW 20:32:49 10° NNW
CZ-2D R/B 3.2 20:24:39 10° SSE 20:28:28 68° ENE 20:32:21 10° N
Cosmos 2150 Rocket 4.1 20:24:11 10° SSW 20:29:19 81° WNW 20:34:31 10° NNE
Cosmos 1605 Rocket 4.0 20:25:16 10° S 20:31:23 60° E 20:37:38 10° NNE
Cosmos 1076 Rocket 4.0 20:27:46 10° N 20:31:48 39° ENE 20:35:36 11° SE
Meteor 1-22 Rocket 4.3 20:26:14 10° S 20:32:03 85° E 20:38:08 10° NNE
Cosmos 1805 3.6 20:30:35 10° SSE 20:34:15 42° E 20:37:58 10° NNE
Cosmos 1766 Rocket 4.3 20:31:47 10° N 20:35:52 33° ENE 20:38:51 16° SE
Cosmos 990 Rocket 4.0 20:32:06 10° SSW 20:37:21 89° W 20:42:39 10° NNE
ALOS 3.3 20:33:35 10° S 20:38:06 48° W 20:42:38 10° NNW
In-Cosmos 22 4.0 20:33:35 10° N 20:38:57 84° ENE 20:44:14 10° SSE
Cosmos 1437 Rocket 3.8 20:35:10 10° SSW 20:39:05 50° WNW 20:43:04 10° N
Cosmos 1898 Rocket 4.4 20:34:23 10° SW 20:39:35 53° WNW 20:44:46 10° NNE
Envisat 3.4 20:37:04 12° SE 20:41:30 45° ENE 20:46:20 10° N
Cosmos 2123 Rocket 4.1 20:35:27 10° N 20:41:49 83° W 20:48:05 10° S
Cosmos 1844 Rocket 3.5 20:38:13 10° SW 20:43:45 54° WNW 20:49:17 10° NNE
Helios 1B rocket 2.7 20:39:56 10° NNE 20:43:56 45° E 20:47:53 10° S
Cosmos 1340 Rocket 4.0 20:42:13 10° NNE 20:45:35 24° ENE 20:46:28 23° E
USA 267 4.0 20:42:44 14° E 20:47:53 43° NNE 20:53:58 10° NW
Cosmos 1125 Rocket 3.8 20:43:15 10° S 20:48:04 41° ESE 20:52:56 10° NE
Cosmos 1470 3.8 20:47:59 24° E 20:48:14 24° E 20:51:29 10° NE
YAOGAN 6 4.0 20:48:31 21° ENE 20:48:49 21° ENE 20:51:41 10° NNE
Cosmos 1048 Rocket 4.1 20:44:38 10° NNW 20:49:41 54° ENE 20:53:05 20° SE
SAR-Lupe-4 3.5 20:46:16 10° SSE 20:49:50 86° ENE 20:53:26 10° NNW
CZ-4B DEB 2.7 20:50:11 28° SE 20:51:34 54° ENE 20:54:38 10° N
Cosmos 1833 Rocket 2.9 20:46:15 10° NNW 20:51:44 51° ENE 20:55:11 22° SE
Helios 1A 2.9 20:47:35 10° SSE 20:51:45 82° ENE 20:55:57 10° NNW
Geosat 3.9 20:48:20 10° NNE 20:53:24 75° ESE 20:58:25 10° SSW
Cosmos 2278 Rocket 2.1 20:49:45 10° SSW 20:55:26 86° ESE 21:01:10 10° NNE
Lacrosse 4 Rocket 3.0 20:52:39 10° WSW 20:56:24 36° NW 21:00:11 10° NNE
Cosmos-2242 3.5 20:56:37 26° SE 20:58:09 35° E 21:02:02 10° NNE
Timation 2 Rocket 4.1 20:54:57 10° NNW 21:01:16 59° ENE 21:04:53 25° SE
Cosmos 1153 Rocket 4.5 20:55:36 10° S 21:01:57 71° E 21:08:20 10° NNE
Spot 1 4.4 20:57:51 10° S 21:02:28 78° WSW 21:07:24 10° NNW
Lacrosse 5 1.8 20:57:41 10° SW 21:02:46 82° SE 21:07:51 10° NE
CZ-3B DEB 2.6 20:53:01 10° WSW 21:03:24 82° NW 21:07:40 13° NE
Cosmos 1758 3.2 21:00:34 10° S 21:04:32 82° E 21:08:33 10° N
ERS-1 Rocket 3.4 21:03:28 28° ESE 21:05:29 42° ENE 21:10:13 10° N
Cosmos 1743 Rocket 4.2 21:03:41 10° N 21:07:44 34° ENE 21:08:16 33° E
Cosmos 1733 3.8 21:08:30 36° E 21:08:30 36° E 21:11:47 10° NNE
Cosmos 2297 3.8 21:03:22 10° S 21:08:53 53° ESE 21:14:28 10° NE
SPOT 5 4.1 21:07:56 25° E 21:09:01 27° ENE 21:13:28 10° N
SAR-Lupe-1 4.4 21:06:29 15° S 21:09:24 63° WSW 21:12:58 10° NNW
Cosmos 1818 3.6 21:06:02 10° NW 21:11:30 77° SW 21:14:48 24° SSE
Cosmos 1939 Rocket 2.8 21:12:14 32° SSE 21:14:04 74° ENE 21:18:14 10° N
Cosmos 1953 2.3 21:10:03 10° S 21:14:07 84° W 21:18:12 10° N
Meteor 1-29 2.8 21:13:09 10° NNE 21:16:38 89° ESE 21:19:51 12° SSW
Meteor 1-4 Rocket 2.5 21:13:41 10° SSW 21:17:09 76° W 21:20:39 10° N
Cosmos 2251 Rocket 4.3 21:13:05 10° N 21:17:53 33° ENE 21:18:52 31° E
COSMOS 2487 2.3 21:16:00 10° NNW 21:19:35 89° ENE 21:20:11 60° SSE
Cosmos 1544 4.0 21:17:33 10° SSW 21:21:06 50° WNW 21:24:42 10° N
Cosmos 2082 Rocket 2.2 21:17:26 10° NNW 21:23:10 86° WSW 21:26:11 29° SSE
Cosmos 1269 Rocket 4.1 21:18:25 10° NNW 21:23:43 79° WSW 21:26:45 26° SSE
Cosmos 1459 Rocket 3.9 21:22:46 10° S 21:28:59 67° E 21:35:07 10° NNE
Cosmos 1408 Rocket 3.8 21:26:21 10° NNW 21:30:49 69° W 21:33:15 26° S
Cosmos 2173 Rocket 3.9 21:26:05 10° S 21:32:12 70° E 21:38:26 10° NNE
Lacrosse 5 rocket 1.4 21:31:20 10° NW 21:35:09 57° NNE 21:35:09 57° NNE
Terra 3.9 21:38:27 14° NE 21:38:27 14° NE 21:40:06 10° NNE
Cosmos 1271 Rocket 2.6 21:39:43 86° SSE 21:39:47 87° E 21:43:51 10° NNE
Cosmos 1356 Rocket 4.1 21:38:41 10° N 21:41:49 41° NNE 21:41:49 41° NNE
YAOGAN 11 4.2 21:45:26 65° ENE 21:45:26 65° ENE 21:49:55 10° N
ARGOS 3.4 21:47:49 49° ENE 21:47:59 49° ENE 21:53:09 10° N
Cosmos 1867 3.4 21:43:20 10° SSW 21:48:47 86° SE 21:54:18 10° NE
MetOp-A 4.0 21:50:51 63° ESE 21:51:34 72° ENE 21:56:55 10° N
Cosmos 372 Rocket 4.1 21:50:11 10° SSW 21:55:17 72° WNW 22:00:28 10° NNE
USA 215 3.1 21:50:09 10° NE 21:56:44 83° SE 22:03:17 10° SW
Cosmos 2016 Rocket 3.8 22:01:03 39° S 22:03:32 86° E 22:09:44 10° N
Cosmos 2151 3.9 22:01:44 10° N 22:04:38 41° N 22:04:38 41° N
Cosmos 1725 Rocket 3.8 22:10:02 69° ESE 22:10:10 69° E 22:16:20 10° NNE
Cosmos 2058 4.3 22:07:45 10° N 22:10:04 31° N 22:10:04 31° N
Meteor 2-17 Rocket 4.4 22:10:55 43° SSW 22:13:09 83° W 22:19:20 10° N
H-2A R/B 2.7 22:14:41 46° NE 22:14:41 46° NE 22:18:55 10° N
USA 245 4.2 22:16:27 74° NE 22:16:27 74° NE 22:22:09 10° N
Cosmos 494 Rocket 4.0 22:11:08 10° NNW 22:15:51 75° NW 22:15:51 75° NW
Tsikada Rocket 3.8 22:14:28 10° N 22:20:42 87° E 22:21:04 80° SSE
MOS 1-B Rocket 4.5 22:24:05 63° SE 22:25:21 74° ENE 22:32:23 10° N
USA 267 3.0 22:30:04 79° SE 22:30:33 89° SW 22:37:08 10° NW
Cosmos 1833 Rocket 4.3 22:30:45 10° NW 22:35:21 26° WSW 22:36:55 23° SW
Lacrosse 5 3.4 22:41:39 10° W 22:46:12 32° NNW 22:47:18 29° N
SPOT 5 3.9 22:47:10 47° W 22:47:10 47° W 22:51:59 10° NNW
H-2A R/B 4.3 22:50:04 21° NNW 22:50:04 21° NNW 22:51:27 10° NNW
Terra 3.8 23:17:20 25° NNW 23:17:20 25° NNW 23:19:21 10° NNW
CZ-3B DEB 3.9 23:11:07 10° WNW 23:15:02 23° NW 23:15:02 23° NW
USA 215 4.1 23:33:18 10° NE 23:39:27 45° NNW 23:45:35 10° W
H-2A R/B 4.3 23:55:18 20° WNW 23:55:18 20° WNW 23:57:43 10° NW
